Regional Weather Roundup
Issued by NWS

Home | Current Version | Previous Version | Graphics & Text | Print | Product List | Glossary On
Versions: 1 2 3 4 5 6 7 8 9 10 11 12 13 14 15 16 17 18 19 20 21 22 23 24 25 26 27 28 29 30 31 32 33 34 35 36 37 38 39 40 41 42 43 44 45 46 47 48 49 50
118
ASUS43 KMPX 220701
RWRMN
WEATHER ROUNDUP FOR MINNESOTA
NATIONAL WEATHER SERVICE TWIN CITIES/CHANHASSEN MN
200 AM CDT FRI MAY 22 2015


NOTE: "FAIR" INDICATES FEW OR NO CLOUDS BELOW 12,000 FEET WITH NO
SIGNIFICANT WEATHER AND/OR OBSTRUCTIONS TO VISIBILITY. N/A MEANS
CURRENT SKY AND/OR WEATHER CONDITIONS ARE NOT AVAILABLE.

MNZ060>063-068>070-220800-
   Twin Cities Metro

CITY           SKY/WX    TMP DP  RH WIND       PRES   REMARKS
TWIN CITIES    CLEAR     56  35  45 NW5       30.12R
ST PAUL        CLEAR     52  38  58 SW3       30.12R
CRYSTAL        CLEAR     47  38  71 CALM      30.11R
BLAINE         CLEAR     46  39  76 CALM      30.12R
LAKEVILLE      CLEAR     43  39  87 W3        30.12R
EDEN PRAIRIE   CLEAR     52  39  61 NW5       30.12R
SOUTH ST PAUL  CLEAR     55  34  44 NW3       30.11R
LAKE ELMO      FAIR      52  34  50 N3        30.12R
$$
MNZ001>005-007-008-013>017-022>024-027-028-220800-
   Northwest Minnesota

CITY           SKY/WX    TMP DP  RH WIND       PRES   REMARKS
BEMIDJI        CLEAR     40  34  80 CALM      30.14R
HALLOCK        CLEAR     45  39  81 S3        30.12S
ROSEAU         CLEAR     43  36  75 CALM      30.13R
WARROAD        CLEAR     41  37  87 SW3       30.13S
THIEF RVR FALL CLEAR     46  34  61 CALM      30.14S
CROOKSTON      CLEAR     55  30  38 E5        30.14S
FOSSTON        CLEAR     37  34  87 CALM      30.15S
DETROIT LAKES  CLEAR     48  41  76 CALM      30.15S
MOORHEAD       CLEAR     50  37  62 CALM      30.15S
PARK RAPIDS    CLEAR     45  38  76 CALM      30.14R
MAHNOMEN       FAIR      48  38  68 CALM      30.14S
$$
MNZ006-009>011-018-025>026-220800-
   North Central Minnesota

CITY           SKY/WX    TMP DP  RH WIND       PRES   REMARKS
BAUDETTE       CLEAR     39  37  92 SW3       30.12S
FLAG ISLAND    CLEAR     48  43  81 CALM      30.10S
INTL FALLS     CLEAR     33  31  92 CALM      30.12R
WASKISH        CLEAR     39  37  93 CALM      30.13S
BIG FORK       CLEAR     36  32  87 CALM      30.13S
LONGVILLE      CLEAR     37  37 100 CALM      30.13S
GRAND RAPIDS   CLEAR     39  30  70 CALM      30.13R
CRANE LAKE     CLEAR     30  28  93 CALM      30.14R
ORR            CLEAR     36  30  80 CALM      30.10R
COOK           CLEAR     34  30  86 CALM      30.12S
WALKER         FAIR      38  36  91 CALM      30.13S
$$
MNZ012-019>021-037-220800-
   Northeast Minnesota

CITY           SKY/WX    TMP DP  RH WIND       PRES   REMARKS
DULUTH         CLEAR     45  33  63 CALM      30.11S
ELY            CLEAR     32  28  86 CALM      30.12R
HIBBING        CLEAR     32  28  85 CALM      30.11S
EVELETH        CLEAR     34  32  93 CALM      30.13R
DULUTH HARBOR  CLEAR     52  34  50 CALM      30.12S
TWO HARBORS    CLEAR     50  34  53 CALM      30.09S
SILVER BAY     CLEAR     36  30  80 CALM      30.10S
GRAND MARAIS     N/A     38  29  70 NE3       30.12R
G MARAIS ARPRT CLEAR     32  23  69 N3        30.11S
$$
MNZ029>031-032-039>041-046>048-054>057-064-220800-
   West Central Minnesota

CITY           SKY/WX    TMP DP  RH WIND       PRES   REMARKS
FERGUS FALLS   CLEAR     52  37  58 NE5       30.16R
WHEATON        CLEAR     46  39  76 W6        30.18R
MORRIS         CLEAR     46  39  76 CALM      30.14S
ALEXANDRIA     CLEAR     47  38  71 CALM      30.16R
ELBOW LAKE     FAIR      52  39  61 CALM      30.14S
WADENA         CLEAR     43  36  75 CALM      30.14R
GLENWOOD       CLEAR     52  37  58 N5        30.15R
APPLETON       CLEAR     46  37  71 W5        30.15R
BENSON         CLEAR     46  39  76 CALM      30.15R
ORTONVILLE     CLEAR     48  39  71 NW5       30.15S
MADISON        CLEAR     46  36  66 W5        30.16R
WILLMAR        FAIR      48  39  71 NW3       30.16R
$$
MNZ033>034-036-042>043-049>051-058-059-220800-
   Central Minnesota

CITY           SKY/WX    TMP DP  RH WIND       PRES   REMARKS
ST CLOUD       CLEAR     44  38  79 CALM      30.13R
SAUK CENTRE    FAIR      43  40  89 CALM      30.14S
PAYNESVILLE    CLEAR     40  36  87 CALM      30.15S
AITKIN         CLEAR     37  34  87 CALM      30.12R
PINE RIVER     CLEAR     39  37  93 CALM      30.17R
BRAINERD       CLEAR     38  36  92 CALM      30.14R
STAPLES        CLEAR     39  36  87 CALM      30.14R
LONG PRAIRIE   FAIR      43  37  81 CALM      30.15R
LITTLE FALLS   CLEAR     41  37  87 CALM      30.14R
LITCHFIELD     CLEAR     52  43  71 CALM      30.15R
BUFFALO        CLEAR     47  42  80 CALM      30.14R
MAPLE LAKE     CLEAR     46  42  88 CALM      30.14S
$$
MNZ037-044-045-052-053-220800-
   East Central Minnesota

CITY           SKY/WX    TMP DP  RH WIND       PRES   REMARKS
PRINCETON      CLEAR     43  37  81 CALM      30.13R
MORA           CLEAR     48  32  53 CALM      30.14R
CAMBRIDGE      CLEAR     48  36  61 CALM      30.11R
RUSH CITY      CLEAR     47  34  59 N3        30.12R
MOOSE LAKE     CLEAR     39  36  87 CALM      30.11S
HINCKLEY       FAIR      45  34  65 CALM      30.12S
CLOQUET        CLEAR     39  30  70 NW3       30.12R
MCGREGOR       CLEAR     41  36  81 CALM      30.14R
$$
MNZ071>073-080-081-089-090-097-098-220800-
   Southwest Minnesota

CITY           SKY/WX    TMP DP  RH WIND       PRES   REMARKS
MONTEVIDEO     CLEAR     52  36  54 N3        30.16R
GRANITE FALLS  CLEAR     46  36  70 W5        30.16S
CANBY          CLEAR     44  36  71 W5        30.17S
MARSHALL       CLEAR     48  32  53 W6        30.15S
REDWOOD FALLS  CLEAR     52  36  54 NW8       30.14R
OLIVIA         CLEAR     46  34  61 NW3       30.14R
PIPESTONE      CLEAR     50  34  53 NE1       30.16S
WINDOM         CLEAR     46  34  61 CALM      30.15S
WORTHINGTON    CLEAR     48  28  46 W5        30.17R
JACKSON        CLEAR     48  32  53 W3        30.15S
TRACY          CLEAR     55  33  43 W5        30.16S
SLAYTON        CLEAR     47  34  60 CALM      30.17R
$$
MNZ065>067-074>077-082>085-091>093-220800-
   South Central Minnesota

CITY           SKY/WX    TMP DP  RH WIND       PRES   REMARKS
MANKATO        CLEAR     52  34  50 W3        30.13S
NEW ULM        CLEAR     48  34  57 NW7       30.13S
ST JAMES       CLEAR     46  34  61 CALM      30.15R
FAIRMONT       CLEAR     50  30  46 NW6       30.13S
GLENCOE        CLEAR     49  41  72 CALM      30.13R
FARIBAULT      CLEAR     45  39  81 CALM      30.13R
OWATONNA       CLEAR     45  37  76 CALM      30.13R
WASECA         CLEAR     45  34  65 CALM      30.14R
ALBERT LEA     CLEAR     48  37  66 W1        30.12S
$$
MNZ078>079-086>088-094>096-220800-
   Southeast Minnesota

CITY           SKY/WX    TMP DP  RH WIND       PRES   REMARKS
ROCHESTER      CLEAR     49  33  54 NW8       30.12R
RED WING       CLEAR     45  39  81 CALM      30.09S
STANTON        CLEAR     43  36  76 S3        30.11R
DODGE CENTER   CLEAR     52  34  50 NW3       30.12R
WINONA         CLEAR     48  41  76 CALM      30.09R
AUSTIN         CLEAR     46  39  76 CALM      30.12R
PRESTON        CLEAR     50  33  50 NW7       30.11R
$$
ABBREVIATIONS USED IN REMARKS
   TC - TEMPERATURES IN CELSIUS
  WCI - WIND CHILL INDEX
   HX - HEAT INDEX
  VSB - VISIBILITY
$$



USA.gov is the U.S. government's official web portal to all federal, state and local government web resources and services.